Time,TemperatureF,DewpointF,PressureIn,WindDirection,WindDirectionDegrees,WindSpeedMPH,WindSpeedGustMPH,Humidity,HourlyPrecipIn,Conditions,Clouds,dailyrainin,SoftwareType,DateUTC
2013-01-07 00:00:00,31.9,29.3,30.29,NW,306,0.0,16.0,90,0.00,,,0.07,WUHU216DAVISVP2,2013-01-07 05:00:00,
2013-01-07 00:01:00,31.9,29.3,30.29,WNW,287,4.0,16.0,90,0.00,,,0.07,WUHU216DAVISVP2,2013-01-07 05:01:00,
2013-01-07 00:06:00,32.0,29.4,30.29,WNW,284,4.0,10.0,90,0.00,,,0.00,WUHU216DAVISVP2,2013-01-07 05:06:00,
2013-01-07 00:11:00,32.0,29.4,30.29,West,274,8.0,14.0,90,0.00,,,0.00,WUHU216DAVISVP2,2013-01-07 05:11:00,
2013-01-07 00:16:00,32.1,29.5,30.29,West,268,6.0,14.0,90,0.00,,,0.00,WUHU216DAVISVP2,2013-01-07 05:16:00,
2013-01-07 00:21:00,32.1,29.2,30.30,NW,314,4.0,16.0,89,0.00,,,0.00,WUHU216DAVISVP2,2013-01-07 05:21:00,
2013-01-07 00:26:00,32.1,29.2,30.30,WNW,284,6.0,16.0,89,0.00,,,0.00,WUHU216DAVISVP2,2013-01-07 05:26:00,
2013-01-07 00:31:00,32.1,29.2,30.30,West,275,6.0,10.0,89,0.00,,,0.00,WUHU216DAVISVP2,2013-01-07 05:31:00,
2013-01-07 00:36:00,32.1,29.2,30.30,WNW,297,8.0,12.0,89,0.00,,,0.00,WUHU216DAVISVP2,2013-01-07 05:36:00,
2013-01-07 00:41:00,32.0,29.4,30.30,NW,308,6.0,16.0,90,0.00,,,0.00,WUHU216DAVISVP2,2013-01-07 05:41:00,
2013-01-07 00:46:00,32.0,29.4,30.30,WNW,283,4.0,16.0,90,0.00,,,0.00,WUHU216DAVISVP2,2013-01-07 05:46:00,
2013-01-07 00:51:00,31.9,29.5,30.30,WNW,293,6.0,14.0,91,0.00,,,0.00,WUHU216DAVISVP2,2013-01-07 05:51:00,
2013-01-07 00:56:00,31.9,29.5,30.30,ESE,117,2.0,12.0,91,0.00,,,0.00,WUHU216DAVISVP2,2013-01-07 05:56:00,
2013-01-07 01:02:00,31.9,29.5,30.30,WNW,286,6.0,16.0,91,0.00,,,0.00,WUHU216DAVISVP2,2013-01-07 06:02:00,
2013-01-07 01:07:00,31.9,29.8,30.30,NNW,339,6.0,16.0,92,0.00,,,0.00,WUHU216DAVISVP2,2013-01-07 06:07:00,
2013-01-07 01:12:00,31.8,29.7,30.31,WNW,284,4.0,10.0,92,0.00,,,0.00,WUHU216DAVISVP2,2013-01-07 06:12:00,
2013-01-07 01:17:00,31.8,30.0,30.31,West,264,8.0,10.0,93,0.00,,,0.00,WUHU216DAVISVP2,2013-01-07 06:17:00,
2013-01-07 01:22:00,31.8,30.0,30.31,NW,309,8.0,10.0,93,0.00,,,0.00,WUHU216DAVISVP2,2013-01-07 06:22:00,
2013-01-07 01:27:00,31.8,30.0,30.31,West,274,4.0,10.0,93,0.00,,,0.00,WUHU216DAVISVP2,2013-01-07 06:27:00,
2013-01-07 01:32:00,31.7,29.9,30.32,WNW,292,2.0,10.0,93,0.00,,,0.00,WUHU216DAVISVP2,2013-01-07 06:32:00,
2013-01-07 01:37:00,31.5,29.7,30.32,WNW,302,4.0,12.0,93,0.00,,,0.00,WUHU216DAVISVP2,2013-01-07 06:37:00,
2013-01-07 01:42:00,31.2,29.4,30.33,West,270,6.0,12.0,93,0.00,,,0.00,WUHU216DAVISVP2,2013-01-07 06:42:00,
2013-01-07 01:47:00,31.2,29.6,30.33,NW,306,0.0,10.0,94,0.00,,,0.00,WUHU216DAVISVP2,2013-01-07 06:47:00,
2013-01-07 01:52:00,31.2,29.6,30.33,West,269,2.0,6.0,94,0.00,,,0.00,WUHU216DAVISVP2,2013-01-07 06:52:00,
2013-01-07 01:57:00,31.3,29.7,30.33,WSW,248,2.0,6.0,94,0.00,,,0.00,WUHU216DAVISVP2,2013-01-07 06:57:00,
2013-01-07 02:02:00,31.4,29.8,30.33,West,273,4.0,8.0,94,0.00,,,0.00,WUHU216DAVISVP2,2013-01-07 07:02:00,
2013-01-07 02:07:00,31.6,30.0,30.34,West,275,2.0,8.0,94,0.00,,,0.00,WUHU216DAVISVP2,2013-01-07 07:07:00,
2013-01-07 02:12:00,31.7,30.1,30.34,West,275,2.0,6.0,94,0.00,,,0.00,WUHU216DAVISVP2,2013-01-07 07:12:00,
2013-01-07 02:17:00,31.8,30.5,30.34,NW,310,0.0,8.0,95,0.00,,,0.00,WUHU216DAVISVP2,2013-01-07 07:17:00,
2013-01-07 02:22:00,31.9,30.6,30.34,NW,309,0.0,8.0,95,0.00,,,0.00,WUHU216DAVISVP2,2013-01-07 07:22:00,
2013-01-07 02:27:00,32.0,30.4,30.34,NW,304,6.0,8.0,94,0.00,,,0.00,WUHU216DAVISVP2,2013-01-07 07:27:00,
2013-01-07 02:32:00,32.0,30.4,30.35,NNW,348,4.0,8.0,94,0.00,,,0.00,WUHU216DAVISVP2,2013-01-07 07:32:00,
2013-01-07 02:37:00,32.1,30.5,30.35,WNW,300,6.0,8.0,94,0.00,,,0.00,WUHU216DAVISVP2,2013-01-07 07:37:00,
2013-01-07 02:42:00,32.1,30.5,30.35,NNE,15,0.0,8.0,94,0.00,,,0.00,WUHU216DAVISVP2,2013-01-07 07:42:00,
2013-01-07 02:47:00,32.1,30.5,30.35,NNW,337,0.0,8.0,94,0.00,,,0.00,WUHU216DAVISVP2,2013-01-07 07:47:00,
2013-01-07 02:52:00,32.1,30.3,30.35,NW,323,0.0,6.0,93,0.00,,,0.00,WUHU216DAVISVP2,2013-01-07 07:52:00,
2013-01-07 02:57:00,32.1,30.3,30.35,NW,306,2.0,10.0,93,0.00,,,0.00,WUHU216DAVISVP2,2013-01-07 07:57:00,
2013-01-07 03:02:00,32.1,30.3,30.36,North,360,0.0,10.0,93,0.00,,,0.00,WUHU216DAVISVP2,2013-01-07 08:02:00,
2013-01-07 03:08:00,32.1,30.3,30.36,NNE,27,0.0,4.0,93,0.00,,,0.00,WUHU216DAVISVP2,2013-01-07 08:08:00,
2013-01-07 03:13:00,32.1,30.0,30.36,North,350,0.0,4.0,92,0.00,,,0.00,WUHU216DAVISVP2,2013-01-07 08:13:00,
2013-01-07 03:18:00,32.1,30.0,30.36,NE,52,0.0,4.0,92,0.00,,,0.00,WUHU216DAVISVP2,2013-01-07 08:18:00,
2013-01-07 03:23:00,32.1,30.0,30.36,NE,52,0.0,4.0,92,0.00,,,0.00,WUHU216DAVISVP2,2013-01-07 08:23:00,
2013-01-07 03:28:00,32.1,30.3,30.37,NE,52,0.0,2.0,93,0.00,,,0.00,WUHU216DAVISVP2,2013-01-07 08:28:00,
2013-01-07 03:33:00,32.1,30.3,30.37,North,355,2.0,4.0,93,0.00,,,0.00,WUHU216DAVISVP2,2013-01-07 08:33:00,
2013-01-07 03:38:00,32.1,30.0,30.37,WNW,302,2.0,6.0,92,0.00,,,0.00,WUHU216DAVISVP2,2013-01-07 08:38:00,
2013-01-07 03:43:00,32.1,30.0,30.37,NNW,332,0.0,6.0,92,0.00,,,0.00,WUHU216DAVISVP2,2013-01-07 08:43:00,
2013-01-07 03:48:00,32.1,30.0,30.37,WNW,298,6.0,6.0,92,0.00,,,0.00,WUHU216DAVISVP2,2013-01-07 08:48:00,
2013-01-07 03:53:00,32.1,29.7,30.37,North,360,2.0,8.0,91,0.00,,,0.00,WUHU216DAVISVP2,2013-01-07 08:53:00,
2013-01-07 03:58:00,32.1,29.7,30.37,NW,318,4.0,8.0,91,0.00,,,0.00,WUHU216DAVISVP2,2013-01-07 08:58:00,
2013-01-07 04:03:00,32.0,29.6,30.38,NNE,17,2.0,6.0,91,0.00,,,0.00,WUHU216DAVISVP2,2013-01-07 09:03:00,
2013-01-07 04:08:00,32.0,29.6,30.38,NW,319,0.0,6.0,91,0.00,,,0.00,WUHU216DAVISVP2,2013-01-07 09:08:00,
2013-01-07 04:13:00,32.0,29.6,30.37,North,9,2.0,6.0,91,0.00,,,0.00,WUHU216DAVISVP2,2013-01-07 09:13:00,
2013-01-07 04:18:00,31.9,29.8,30.38,NW,323,0.0,6.0,92,0.00,,,0.00,WUHU216DAVISVP2,2013-01-07 09:18:00,
2013-01-07 04:23:00,31.9,29.5,30.38,NW,311,2.0,4.0,91,0.00,,,0.00,WUHU216DAVISVP2,2013-01-07 09:23:00,
2013-01-07 04:28:00,31.9,29.5,30.38,NW,304,0.0,6.0,91,0.00,,,0.00,WUHU216DAVISVP2,2013-01-07 09:28:00,
2013-01-07 04:33:00,31.8,29.4,30.38,NW,307,0.0,6.0,91,0.00,,,0.00,WUHU216DAVISVP2,2013-01-07 09:33:00,
2013-01-07 04:38:00,31.8,29.4,30.38,NW,307,0.0,4.0,91,0.00,,,0.00,WUHU216DAVISVP2,2013-01-07 09:38:00,
2013-01-07 04:43:00,31.8,29.4,30.38,NW,307,0.0,2.0,91,0.00,,,0.00,WUHU216DAVISVP2,2013-01-07 09:43:00,
2013-01-07 04:48:00,31.7,29.3,30.38,WNW,298,0.0,6.0,91,0.00,,,0.00,WUHU216DAVISVP2,2013-01-07 09:48:00,
2013-01-07 04:53:00,31.7,29.3,30.38,WNW,298,0.0,6.0,91,0.00,,,0.00,WUHU216DAVISVP2,2013-01-07 09:53:00,
2013-01-07 04:58:00,31.7,29.3,30.38,WNW,298,0.0,2.0,91,0.00,,,0.00,WUHU216DAVISVP2,2013-01-07 09:58:00,
2013-01-07 05:03:00,31.6,29.2,30.38,WNW,298,0.0,2.0,91,0.00,,,0.00,WUHU216DAVISVP2,2013-01-07 10:03:00,
2013-01-07 05:08:00,31.6,29.2,30.38,ENE,62,0.0,4.0,91,0.00,,,0.00,WUHU216DAVISVP2,2013-01-07 10:08:00,
2013-01-07 05:14:00,31.6,29.2,30.38,ENE,62,0.0,4.0,91,0.00,,,0.00,WUHU216DAVISVP2,2013-01-07 10:14:00,
2013-01-07 05:19:00,31.5,29.1,30.38,ENE,62,0.0,2.0,91,0.00,,,0.00,WUHU216DAVISVP2,2013-01-07 10:19:00,
2013-01-07 05:24:00,31.5,29.1,30.38,ENE,62,0.0,0.0,91,0.00,,,0.00,WUHU216DAVISVP2,2013-01-07 10:24:00,
2013-01-07 05:29:00,31.4,29.0,30.39,ENE,62,0.0,0.0,91,0.00,,,0.00,WUHU216DAVISVP2,2013-01-07 10:29:00,
2013-01-07 05:34:00,31.4,29.3,30.39,ENE,62,0.0,0.0,92,0.00,,,0.00,WUHU216DAVISVP2,2013-01-07 10:34:00,
2013-01-07 05:39:00,31.3,29.2,30.39,ENE,62,0.0,0.0,92,0.00,,,0.00,WUHU216DAVISVP2,2013-01-07 10:39:00,
2013-01-07 05:44:00,31.2,29.1,30.40,ENE,62,0.0,0.0,92,0.00,,,0.00,WUHU216DAVISVP2,2013-01-07 10:44:00,
2013-01-07 05:49:00,31.2,29.1,30.40,ENE,62,0.0,0.0,92,0.00,,,0.00,WUHU216DAVISVP2,2013-01-07 10:49:00,
2013-01-07 05:54:00,31.2,29.1,30.41,ENE,62,0.0,0.0,92,0.00,,,0.00,WUHU216DAVISVP2,2013-01-07 10:54:00,
2013-01-07 05:59:00,31.1,29.0,30.41,ENE,62,0.0,0.0,92,0.00,,,0.00,WUHU216DAVISVP2,2013-01-07 10:59:00,
2013-01-07 06:04:00,31.1,29.0,30.41,ENE,62,0.0,0.0,92,0.00,,,0.00,WUHU216DAVISVP2,2013-01-07 11:04:00,
2013-01-07 06:09:00,31.1,29.0,30.41,ENE,62,0.0,0.0,92,0.00,,,0.00,WUHU216DAVISVP2,2013-01-07 11:09:00,
2013-01-07 06:14:00,31.1,29.0,30.41,ENE,62,0.0,0.0,92,0.00,,,0.00,WUHU216DAVISVP2,2013-01-07 11:14:00,
2013-01-07 06:19:00,31.1,29.0,30.41,ENE,62,0.0,0.0,92,0.00,,,0.00,WUHU216DAVISVP2,2013-01-07 11:19:00,
2013-01-07 06:24:00,31.1,29.3,30.41,ENE,62,0.0,0.0,93,0.00,,,0.00,WUHU216DAVISVP2,2013-01-07 11:24:00,
2013-01-07 06:29:00,31.0,29.2,30.41,ENE,62,0.0,0.0,93,0.00,,,0.00,WUHU216DAVISVP2,2013-01-07 11:29:00,
2013-01-07 06:34:00,31.0,29.2,30.41,ENE,62,0.0,0.0,93,0.00,,,0.00,WUHU216DAVISVP2,2013-01-07 11:34:00,
2013-01-07 06:39:00,31.0,28.9,30.41,ENE,62,0.0,2.0,92,0.00,,,0.00,WUHU216DAVISVP2,2013-01-07 11:39:00,
2013-01-07 06:44:00,31.0,28.9,30.41,ENE,62,0.0,2.0,92,0.00,,,0.00,WUHU216DAVISVP2,2013-01-07 11:44:00,
2013-01-07 06:49:00,31.0,29.2,30.42,ENE,62,0.0,0.0,93,0.00,,,0.00,WUHU216DAVISVP2,2013-01-07 11:49:00,
2013-01-07 06:54:00,31.0,29.2,30.42,ENE,62,0.0,0.0,93,0.00,,,0.00,WUHU216DAVISVP2,2013-01-07 11:54:00,
2013-01-07 07:00:00,31.0,29.2,30.42,ENE,62,0.0,0.0,93,0.00,,,0.00,WUHU216DAVISVP2,2013-01-07 12:00:00,
2013-01-07 07:05:00,31.0,29.2,30.42,ENE,62,0.0,0.0,93,0.00,,,0.00,WUHU216DAVISVP2,2013-01-07 12:05:00,
2013-01-07 07:10:00,31.0,29.2,30.43,ENE,62,0.0,0.0,93,0.00,,,0.00,WUHU216DAVISVP2,2013-01-07 12:10:00,
2013-01-07 07:15:00,31.0,29.2,30.43,ENE,62,0.0,0.0,93,0.00,,,0.00,WUHU216DAVISVP2,2013-01-07 12:15:00,
2013-01-07 07:20:00,31.0,29.2,30.43,ENE,62,0.0,0.0,93,0.00,,,0.00,WUHU216DAVISVP2,2013-01-07 12:20:00,
2013-01-07 07:25:00,31.0,29.2,30.44,ENE,62,0.0,0.0,93,0.00,,,0.00,WUHU216DAVISVP2,2013-01-07 12:25:00,
2013-01-07 07:30:00,31.0,29.2,30.44,ENE,62,0.0,0.0,93,0.00,,,0.00,WUHU216DAVISVP2,2013-01-07 12:30:00,
2013-01-07 07:35:00,30.9,29.1,30.44,ENE,62,0.0,0.0,93,0.00,,,0.00,WUHU216DAVISVP2,2013-01-07 12:35:00,
2013-01-07 07:40:00,30.9,29.1,30.44,ENE,62,0.0,0.0,93,0.00,,,0.00,WUHU216DAVISVP2,2013-01-07 12:40:00,
2013-01-07 07:45:00,30.9,29.1,30.44,ENE,62,0.0,0.0,93,0.00,,,0.00,WUHU216DAVISVP2,2013-01-07 12:45:00,
2013-01-07 07:50:00,30.8,29.0,30.44,ENE,62,0.0,0.0,93,0.00,,,0.00,WUHU216DAVISVP2,2013-01-07 12:50:00,
2013-01-07 07:55:00,30.8,29.0,30.44,ESE,109,0.0,2.0,93,0.00,,,0.00,WUHU216DAVISVP2,2013-01-07 12:55:00,
2013-01-07 08:00:00,30.8,29.0,30.44,SE,136,0.0,2.0,93,0.00,,,0.00,WUHU216DAVISVP2,2013-01-07 13:00:00,
2013-01-07 08:05:00,30.8,29.0,30.44,SSW,203,6.0,6.0,93,0.00,,,0.00,WUHU216DAVISVP2,2013-01-07 13:05:00,
2013-01-07 08:10:00,30.8,29.0,30.44,South,170,0.0,8.0,93,0.00,,,0.00,WUHU216DAVISVP2,2013-01-07 13:10:00,
2013-01-07 08:15:00,30.9,29.1,30.44,South,171,0.0,8.0,93,0.00,,,0.00,WUHU216DAVISVP2,2013-01-07 13:15:00,
2013-01-07 08:20:00,31.0,29.2,30.45,South,171,0.0,6.0,93,0.00,,,0.00,WUHU216DAVISVP2,2013-01-07 13:20:00,
2013-01-07 08:25:00,31.0,29.2,30.46,South,171,0.0,0.0,93,0.00,,,0.00,WUHU216DAVISVP2,2013-01-07 13:25:00,
2013-01-07 08:30:00,31.0,29.2,30.46,South,171,0.0,2.0,93,0.00,,,0.00,WUHU216DAVISVP2,2013-01-07 13:30:00,
2013-01-07 08:35:00,31.0,29.2,30.46,South,171,0.0,2.0,93,0.00,,,0.00,WUHU216DAVISVP2,2013-01-07 13:35:00,
2013-01-07 08:40:00,31.0,29.2,30.46,West,265,2.0,6.0,93,0.00,,,0.00,WUHU216DAVISVP2,2013-01-07 13:40:00,
2013-01-07 08:45:00,31.1,29.3,30.46,WSW,252,2.0,6.0,93,0.00,,,0.00,WUHU216DAVISVP2,2013-01-07 13:45:00,
2013-01-07 08:50:00,31.2,29.4,30.46,SW,218,0.0,4.0,93,0.00,,,0.00,WUHU216DAVISVP2,2013-01-07 13:50:00,
2013-01-07 08:56:00,31.1,29.3,30.46,SW,230,0.0,8.0,93,0.00,,,0.00,WUHU216DAVISVP2,2013-01-07 13:56:00,
2013-01-07 09:01:00,31.1,29.3,30.47,WSW,247,0.0,10.0,93,0.00,,,0.00,WUHU216DAVISVP2,2013-01-07 14:01:00,
2013-01-07 09:06:00,31.1,29.0,30.47,WSW,240,0.0,10.0,92,0.00,,,0.00,WUHU216DAVISVP2,2013-01-07 14:06:00,
2013-01-07 09:11:00,31.2,29.1,30.47,SW,228,0.0,6.0,92,0.00,,,0.00,WUHU216DAVISVP2,2013-01-07 14:11:00,
2013-01-07 09:16:00,31.2,29.1,30.47,WNW,302,0.0,6.0,92,0.00,,,0.00,WUHU216DAVISVP2,2013-01-07 14:16:00,
2013-01-07 09:21:00,31.2,28.8,30.48,SW,224,10.0,10.0,91,0.00,,,0.00,WUHU216DAVISVP2,2013-01-07 14:21:00,
2013-01-07 09:26:00,31.2,28.8,30.48,SW,227,4.0,10.0,91,0.00,,,0.00,WUHU216DAVISVP2,2013-01-07 14:26:00,
2013-01-07 09:31:00,31.2,28.8,30.47,SW,217,2.0,10.0,91,0.00,,,0.00,WUHU216DAVISVP2,2013-01-07 14:31:00,
2013-01-07 09:36:00,31.3,28.9,30.48,South,179,4.0,8.0,91,0.00,,,0.00,WUHU216DAVISVP2,2013-01-07 14:36:00,
2013-01-07 09:41:00,31.4,29.0,30.48,SSW,200,8.0,8.0,91,0.00,,,0.00,WUHU216DAVISVP2,2013-01-07 14:41:00,
2013-01-07 09:46:00,31.5,29.1,30.48,SW,227,0.0,10.0,91,0.00,,,0.00,WUHU216DAVISVP2,2013-01-07 14:46:00,
2013-01-07 09:51:00,31.6,29.0,30.48,West,263,6.0,10.0,90,0.00,,,0.00,WUHU216DAVISVP2,2013-01-07 14:51:00,
2013-01-07 09:56:00,31.7,29.1,30.48,SSW,197,4.0,8.0,90,0.00,,,0.00,WUHU216DAVISVP2,2013-01-07 14:56:00,
2013-01-07 10:01:00,31.8,29.4,30.49,South,182,2.0,6.0,91,0.00,,,0.00,WUHU216DAVISVP2,2013-01-07 15:01:00,
2013-01-07 10:06:00,32.0,29.4,30.49,SSW,204,2.0,6.0,90,0.00,,,0.00,WUHU216DAVISVP2,2013-01-07 15:06:00,
2013-01-07 10:11:00,32.0,29.1,30.49,West,259,2.0,8.0,89,0.00,,,0.00,WUHU216DAVISVP2,2013-01-07 15:11:00,
2013-01-07 10:16:00,32.1,29.2,30.49,WSW,240,2.0,8.0,89,0.00,,,0.00,WUHU216DAVISVP2,2013-01-07 15:16:00,
2013-01-07 10:21:00,32.2,29.0,30.49,SSW,207,2.0,8.0,88,0.00,,,0.00,WUHU216DAVISVP2,2013-01-07 15:21:00,
2013-01-07 10:26:00,32.4,29.2,30.49,SSW,206,2.0,8.0,88,0.00,,,0.00,WUHU216DAVISVP2,2013-01-07 15:26:00,
2013-01-07 10:31:00,32.5,29.3,30.49,WSW,241,0.0,12.0,88,0.00,,,0.00,WUHU216DAVISVP2,2013-01-07 15:31:00,
2013-01-07 10:36:00,32.4,28.9,30.49,SW,218,10.0,14.0,87,0.00,,,0.00,WUHU216DAVISVP2,2013-01-07 15:36:00,
2013-01-07 10:41:00,32.4,28.9,30.50,SW,234,0.0,14.0,87,0.00,,,0.00,WUHU216DAVISVP2,2013-01-07 15:41:00,
2013-01-07 10:47:00,32.5,29.0,30.50,WSW,248,6.0,14.0,87,0.00,,,0.00,WUHU216DAVISVP2,2013-01-07 15:47:00,
2013-01-07 10:52:00,32.5,28.7,30.50,WSW,246,4.0,12.0,86,0.00,,,0.00,WUHU216DAVISVP2,2013-01-07 15:52:00,
2013-01-07 10:57:00,32.6,28.8,30.49,West,263,4.0,20.0,86,0.00,,,0.00,WUHU216DAVISVP2,2013-01-07 15:57:00,
2013-01-07 11:02:00,32.7,28.7,30.49,West,269,0.0,20.0,85,0.00,,,0.00,WUHU216DAVISVP2,2013-01-07 16:02:00,
2013-01-07 11:07:00,32.8,28.2,30.49,NW,305,4.0,10.0,83,0.00,,,0.00,WUHU216DAVISVP2,2013-01-07 16:07:00,
2013-01-07 11:12:00,32.9,28.3,30.49,SSW,202,4.0,10.0,83,0.00,,,0.00,WUHU216DAVISVP2,2013-01-07 16:12:00,
2013-01-07 11:17:00,33.0,27.8,30.49,WSW,242,8.0,12.0,81,0.00,,,0.00,WUHU216DAVISVP2,2013-01-07 16:17:00,
2013-01-07 11:22:00,33.2,28.0,30.49,West,279,8.0,12.0,81,0.00,,,0.00,WUHU216DAVISVP2,2013-01-07 16:22:00,
2013-01-07 11:27:00,33.2,27.4,30.48,West,264,2.0,16.0,79,0.00,,,0.00,WUHU216DAVISVP2,2013-01-07 16:27:00,
2013-01-07 11:32:00,33.2,27.7,30.48,SW,236,2.0,16.0,80,0.00,,,0.00,WUHU216DAVISVP2,2013-01-07 16:32:00,
2013-01-07 11:37:00,33.2,27.1,30.48,SSW,201,2.0,16.0,78,0.00,,,0.00,WUHU216DAVISVP2,2013-01-07 16:37:00,
2013-01-07 11:42:00,33.2,26.8,30.48,WSW,245,6.0,16.0,77,0.00,,,0.00,WUHU216DAVISVP2,2013-01-07 16:42:00,
2013-01-07 11:47:00,33.3,26.9,30.48,WNW,283,12.0,16.0,77,0.00,,,0.00,WUHU216DAVISVP2,2013-01-07 16:47:00,
2013-01-07 11:52:00,33.1,25.8,30.48,SSW,204,14.0,22.0,74,0.01,,,0.01,WUHU216DAVISVP2,2013-01-07 16:52:00,
2013-01-07 11:57:00,33.0,26.0,30.47,West,270,8.0,32.0,75,0.01,,,0.01,WUHU216DAVISVP2,2013-01-07 16:57:00,
2013-01-07 12:02:00,33.0,25.7,30.47,WNW,296,6.0,32.0,74,0.01,,,0.01,WUHU216DAVISVP2,2013-01-07 17:02:00,
2013-01-07 12:07:00,33.2,26.2,30.47,West,267,6.0,24.0,75,0.01,,,0.01,WUHU216DAVISVP2,2013-01-07 17:07:00,
2013-01-07 12:12:00,33.2,25.9,30.46,WNW,283,4.0,16.0,74,0.01,,,0.01,WUHU216DAVISVP2,2013-01-07 17:12:00,
2013-01-07 12:17:00,33.3,25.6,30.45,West,275,6.0,16.0,73,0.01,,,0.01,WUHU216DAVISVP2,2013-01-07 17:17:00,
2013-01-07 12:22:00,33.4,26.4,30.45,West,261,6.0,16.0,75,0.01,,,0.01,WUHU216DAVISVP2,2013-01-07 17:22:00,
2013-01-07 12:27:00,33.5,26.1,30.45,NW,318,12.0,16.0,74,0.01,,,0.01,WUHU216DAVISVP2,2013-01-07 17:27:00,
2013-01-07 12:32:00,33.6,25.6,30.44,WNW,296,4.0,16.0,72,0.01,,,0.01,WUHU216DAVISVP2,2013-01-07 17:32:00,
2013-01-07 12:37:00,34.1,26.1,30.44,SW,231,12.0,22.0,72,0.01,,,0.01,WUHU216DAVISVP2,2013-01-07 17:37:00,
2013-01-07 12:42:00,34.2,26.2,30.44,SSW,209,16.0,22.0,72,0.01,,,0.01,WUHU216DAVISVP2,2013-01-07 17:42:00,
2013-01-07 12:47:00,34.4,26.0,30.44,WNW,286,8.0,20.0,71,0.01,,,0.01,WUHU216DAVISVP2,2013-01-07 17:47:00,
2013-01-07 12:52:00,34.6,26.2,30.43,SW,227,2.0,20.0,71,0.00,,,0.01,WUHU216DAVISVP2,2013-01-07 17:52:00,
2013-01-07 12:57:00,34.9,26.2,30.43,WNW,292,6.0,18.0,70,0.00,,,0.01,WUHU216DAVISVP2,2013-01-07 17:57:00,
2013-01-07 13:02:00,34.8,26.1,30.43,SW,215,2.0,22.0,70,0.00,,,0.01,WUHU216DAVISVP2,2013-01-07 18:02:00,
2013-01-07 13:07:00,34.9,25.8,30.43,NNW,344,2.0,22.0,69,0.00,,,0.01,WUHU216DAVISVP2,2013-01-07 18:07:00,
2013-01-07 13:12:00,35.1,26.0,30.42,West,279,4.0,18.0,69,0.00,,,0.01,WUHU216DAVISVP2,2013-01-07 18:12:00,
2013-01-07 13:18:00,35.2,25.8,30.43,WSW,248,6.0,18.0,68,0.00,,,0.01,WUHU216DAVISVP2,2013-01-07 18:18:00,
2013-01-07 13:23:00,35.2,25.8,30.42,West,269,4.0,16.0,68,0.00,,,0.01,WUHU216DAVISVP2,2013-01-07 18:23:00,
2013-01-07 13:28:00,35.6,26.2,30.42,South,191,4.0,16.0,68,0.00,,,0.01,WUHU216DAVISVP2,2013-01-07 18:28:00,
2013-01-07 13:33:00,35.6,26.2,30.42,West,275,8.0,14.0,68,0.01,,,0.02,WUHU216DAVISVP2,2013-01-07 18:33:00,
2013-01-07 13:38:00,35.6,26.2,30.42,West,276,4.0,20.0,68,0.01,,,0.02,WUHU216DAVISVP2,2013-01-07 18:38:00,
2013-01-07 13:43:00,35.6,26.2,30.42,WNW,289,2.0,20.0,68,0.01,,,0.02,WUHU216DAVISVP2,2013-01-07 18:43:00,
2013-01-07 13:48:00,35.9,26.4,30.42,WSW,257,10.0,20.0,68,0.01,,,0.02,WUHU216DAVISVP2,2013-01-07 18:48:00,
2013-01-07 13:53:00,36.3,26.5,30.41,SW,227,4.0,14.0,67,0.01,,,0.02,WUHU216DAVISVP2,2013-01-07 18:53:00,
2013-01-07 13:58:00,36.4,26.2,30.41,WSW,238,16.0,22.0,66,0.01,,,0.02,WUHU216DAVISVP2,2013-01-07 18:58:00,
2013-01-07 14:03:00,36.1,25.9,30.41,West,261,6.0,22.0,66,0.01,,,0.02,WUHU216DAVISVP2,2013-01-07 19:03:00,
2013-01-07 14:08:00,36.4,26.6,30.41,West,268,12.0,22.0,67,0.01,,,0.02,WUHU216DAVISVP2,2013-01-07 19:08:00,
2013-01-07 14:13:00,36.2,25.6,30.41,SSE,163,6.0,22.0,65,0.01,,,0.02,WUHU216DAVISVP2,2013-01-07 19:13:00,
2013-01-07 14:18:00,36.2,25.6,30.41,WSW,250,10.0,22.0,65,0.01,,,0.02,WUHU216DAVISVP2,2013-01-07 19:18:00,
2013-01-07 14:23:00,36.6,26.4,30.41,SW,214,12.0,22.0,66,0.01,,,0.02,WUHU216DAVISVP2,2013-01-07 19:23:00,
2013-01-07 14:28:00,36.7,26.5,30.41,SSW,212,14.0,24.0,66,0.02,,,0.03,WUHU216DAVISVP2,2013-01-07 19:28:00,
2013-01-07 14:33:00,36.7,26.1,30.41,WSW,245,6.0,24.0,65,0.01,,,0.03,WUHU216DAVISVP2,2013-01-07 19:33:00,
2013-01-07 14:38:00,36.8,26.2,30.40,NW,321,4.0,20.0,65,0.01,,,0.03,WUHU216DAVISVP2,2013-01-07 19:38:00,
2013-01-07 14:44:00,37.0,26.0,30.40,SE,132,8.0,20.0,64,0.01,,,0.03,WUHU216DAVISVP2,2013-01-07 19:44:00,
2013-01-07 14:49:00,36.9,25.9,30.40,South,190,8.0,22.0,64,0.01,,,0.03,WUHU216DAVISVP2,2013-01-07 19:49:00,
2013-01-07 14:54:00,36.8,25.8,30.40,West,260,10.0,26.0,64,0.02,,,0.04,WUHU216DAVISVP2,2013-01-07 19:54:00,
2013-01-07 14:59:00,36.5,25.9,30.40,SSE,159,24.0,26.0,65,0.02,,,0.04,WUHU216DAVISVP2,2013-01-07 19:59:00,
2013-01-07 15:04:00,36.5,25.9,30.39,SW,234,4.0,26.0,65,0.02,,,0.04,WUHU216DAVISVP2,2013-01-07 20:04:00,
2013-01-07 15:09:00,36.5,25.9,30.39,SW,217,10.0,20.0,65,0.02,,,0.04,WUHU216DAVISVP2,2013-01-07 20:09:00,
2013-01-07 15:14:00,36.4,25.5,30.39,WSW,237,4.0,26.0,64,0.02,,,0.04,WUHU216DAVISVP2,2013-01-07 20:14:00,
2013-01-07 15:19:00,36.4,25.8,30.39,West,265,2.0,26.0,65,0.02,,,0.04,WUHU216DAVISVP2,2013-01-07 20:19:00,
2013-01-07 15:24:00,36.4,26.2,30.39,SSW,196,14.0,20.0,66,0.02,,,0.04,WUHU216DAVISVP2,2013-01-07 20:24:00,
2013-01-07 15:29:00,36.1,25.5,30.38,South,173,8.0,22.0,65,0.01,,,0.04,WUHU216DAVISVP2,2013-01-07 20:29:00,
2013-01-07 15:34:00,35.7,25.5,30.38,WSW,255,10.0,22.0,66,0.01,,,0.04,WUHU216DAVISVP2,2013-01-07 20:34:00,
2013-01-07 15:39:00,35.5,25.7,30.38,WSW,251,4.0,16.0,67,0.01,,,0.04,WUHU216DAVISVP2,2013-01-07 20:39:00,
2013-01-07 15:44:00,35.5,25.7,30.38,South,189,4.0,16.0,67,0.01,,,0.04,WUHU216DAVISVP2,2013-01-07 20:44:00,
2013-01-07 15:50:00,35.3,25.5,30.38,South,180,4.0,20.0,67,0.01,,,0.04,WUHU216DAVISVP2,2013-01-07 20:50:00,
2013-01-07 15:55:00,35.3,25.5,30.38,SSW,211,8.0,20.0,67,0.00,,,0.04,WUHU216DAVISVP2,2013-01-07 20:55:00,
2013-01-07 15:59:00,35.3,25.9,30.38,SSW,195,6.0,16.0,68,0.00,,,0.04,WUHU216DAVISVP2,2013-01-07 20:59:00,
2013-01-07 16:04:00,35.2,25.8,30.38,West,259,14.0,22.0,68,0.00,,,0.04,WUHU216DAVISVP2,2013-01-07 21:04:00,
2013-01-07 16:10:00,35.1,25.7,30.38,SSW,196,2.0,22.0,68,0.00,,,0.04,WUHU216DAVISVP2,2013-01-07 21:10:00,
2013-01-07 16:15:00,35.0,25.6,30.38,South,182,2.0,18.0,68,0.00,,,0.04,WUHU216DAVISVP2,2013-01-07 21:15:00,
2013-01-07 16:20:00,34.9,25.8,30.38,WSW,238,6.0,18.0,69,0.00,,,0.04,WUHU216DAVISVP2,2013-01-07 21:20:00,
2013-01-07 16:25:00,34.6,25.5,30.38,SSE,158,6.0,18.0,69,0.00,,,0.04,WUHU216DAVISVP2,2013-01-07 21:25:00,
2013-01-07 16:30:00,34.4,25.3,30.38,SW,223,6.0,20.0,69,0.00,,,0.04,WUHU216DAVISVP2,2013-01-07 21:30:00,
2013-01-07 16:35:00,34.3,25.6,30.38,West,261,6.0,20.0,70,0.00,,,0.04,WUHU216DAVISVP2,2013-01-07 21:35:00,
2013-01-07 16:40:00,34.1,25.4,30.38,SW,225,12.0,20.0,70,0.00,,,0.04,WUHU216DAVISVP2,2013-01-07 21:40:00,
2013-01-07 16:45:00,34.0,25.3,30.38,SSW,203,12.0,24.0,70,0.00,,,0.04,WUHU216DAVISVP2,2013-01-07 21:45:00,
2013-01-07 16:50:00,33.8,25.5,30.38,SSE,150,2.0,24.0,71,0.00,,,0.04,WUHU216DAVISVP2,2013-01-07 21:50:00,
2013-01-07 16:55:00,33.5,25.2,30.38,SSW,197,8.0,14.0,71,0.00,,,0.04,WUHU216DAVISVP2,2013-01-07 21:55:00,
2013-01-07 17:00:00,33.4,25.4,30.37,WSW,239,6.0,14.0,72,0.00,,,0.04,WUHU216DAVISVP2,2013-01-07 22:00:00,
2013-01-07 17:05:00,33.2,25.2,30.37,South,179,4.0,16.0,72,0.00,,,0.04,WUHU216DAVISVP2,2013-01-07 22:05:00,
2013-01-07 17:10:00,33.1,25.4,30.37,South,173,16.0,20.0,73,0.00,,,0.04,WUHU216DAVISVP2,2013-01-07 22:10:00,
2013-01-07 17:15:00,33.0,25.3,30.37,NW,324,8.0,20.0,73,0.00,,,0.04,WUHU216DAVISVP2,2013-01-07 22:15:00,
2013-01-07 17:20:00,32.8,25.1,30.37,SSE,165,0.0,18.0,73,0.00,,,0.04,WUHU216DAVISVP2,2013-01-07 22:20:00,
2013-01-07 17:25:00,32.6,25.3,30.37,South,190,10.0,20.0,74,0.00,,,0.04,WUHU216DAVISVP2,2013-01-07 22:25:00,
2013-01-07 17:30:00,32.5,25.2,30.36,SSW,203,4.0,20.0,74,0.00,,,0.04,WUHU216DAVISVP2,2013-01-07 22:30:00,
2013-01-07 17:35:00,32.3,25.0,30.36,SW,231,4.0,20.0,74,0.00,,,0.04,WUHU216DAVISVP2,2013-01-07 22:35:00,
2013-01-07 17:40:00,32.1,25.1,30.36,SSE,166,8.0,20.0,75,0.00,,,0.04,WUHU216DAVISVP2,2013-01-07 22:40:00,
2013-01-07 17:46:00,32.1,25.1,30.36,SSE,168,16.0,16.0,75,0.00,,,0.04,WUHU216DAVISVP2,2013-01-07 22:46:00,
2013-01-07 17:51:00,31.9,24.9,30.36,SW,215,10.0,16.0,75,0.00,,,0.04,WUHU216DAVISVP2,2013-01-07 22:51:00,
2013-01-07 17:56:00,31.9,24.9,30.36,SW,236,10.0,20.0,75,0.00,,,0.04,WUHU216DAVISVP2,2013-01-07 22:56:00,
2013-01-07 18:01:00,31.9,24.9,30.36,West,261,8.0,22.0,75,0.00,,,0.04,WUHU216DAVISVP2,2013-01-07 23:01:00,
2013-01-07 18:06:00,31.8,24.8,30.36,SE,138,6.0,22.0,75,0.00,,,0.04,WUHU216DAVISVP2,2013-01-07 23:06:00,
2013-01-07 18:11:00,31.7,25.0,30.36,NW,304,2.0,18.0,76,0.00,,,0.04,WUHU216DAVISVP2,2013-01-07 23:11:00,
2013-01-07 18:16:00,31.5,24.8,30.36,South,184,8.0,18.0,76,0.00,,,0.04,WUHU216DAVISVP2,2013-01-07 23:16:00,
2013-01-07 18:21:00,31.4,24.7,30.35,SW,228,8.0,18.0,76,0.00,,,0.04,WUHU216DAVISVP2,2013-01-07 23:21:00,
2013-01-07 18:26:00,31.4,24.7,30.35,SSW,209,10.0,22.0,76,0.00,,,0.04,WUHU216DAVISVP2,2013-01-07 23:26:00,
2013-01-07 18:31:00,31.2,24.9,30.35,SSE,150,10.0,24.0,77,0.00,,,0.04,WUHU216DAVISVP2,2013-01-07 23:31:00,
2013-01-07 18:36:00,31.1,24.8,30.34,SW,231,6.0,24.0,77,0.00,,,0.04,WUHU216DAVISVP2,2013-01-07 23:36:00,
2013-01-07 18:41:00,31.1,24.8,30.35,SSW,199,4.0,18.0,77,0.00,,,0.04,WUHU216DAVISVP2,2013-01-07 23:41:00,
2013-01-07 18:46:00,31.1,24.8,30.35,SW,220,8.0,20.0,77,0.00,,,0.04,WUHU216DAVISVP2,2013-01-07 23:46:00,
2013-01-07 18:51:00,31.0,24.7,30.35,South,175,6.0,22.0,77,0.00,,,0.04,WUHU216DAVISVP2,2013-01-07 23:51:00,
2013-01-07 18:56:00,31.1,24.8,30.35,South,175,8.0,24.0,77,0.00,,,0.04,WUHU216DAVISVP2,2013-01-07 23:56:00,
2013-01-07 19:01:00,31.1,24.8,30.34,ESE,121,10.0,28.0,77,0.00,,,0.04,WUHU216DAVISVP2,2013-01-08 00:01:00,
2013-01-07 19:06:00,31.0,24.7,30.34,SW,223,10.0,30.0,77,0.00,,,0.04,WUHU216DAVISVP2,2013-01-08 00:06:00,
2013-01-07 19:11:00,31.1,24.8,30.34,SSE,153,12.0,32.0,77,0.00,,,0.04,WUHU216DAVISVP2,2013-01-08 00:11:00,
2013-01-07 19:16:00,31.1,24.8,30.34,South,191,10.0,32.0,77,0.00,,,0.04,WUHU216DAVISVP2,2013-01-08 00:16:00,
2013-01-07 19:21:00,31.1,24.8,30.34,WSW,257,4.0,30.0,77,0.00,,,0.04,WUHU216DAVISVP2,2013-01-08 00:21:00,
2013-01-07 19:26:00,31.1,24.8,30.34,SE,146,10.0,24.0,77,0.00,,,0.04,WUHU216DAVISVP2,2013-01-08 00:26:00,
2013-01-07 19:31:00,31.1,24.8,30.34,South,178,10.0,24.0,77,0.00,,,0.04,WUHU216DAVISVP2,2013-01-08 00:31:00,
2013-01-07 19:36:00,31.1,24.8,30.34,WSW,254,8.0,30.0,77,0.00,,,0.04,WUHU216DAVISVP2,2013-01-08 00:36:00,
2013-01-07 19:42:00,31.1,24.8,30.34,WSW,237,10.0,30.0,77,0.00,,,0.04,WUHU216DAVISVP2,2013-01-08 00:42:00,
2013-01-07 19:47:00,31.0,24.7,30.34,SW,232,6.0,24.0,77,0.00,,,0.04,WUHU216DAVISVP2,2013-01-08 00:47:00,
2013-01-07 19:52:00,30.8,24.8,30.34,South,170,18.0,18.0,78,0.00,,,0.04,WUHU216DAVISVP2,2013-01-08 00:52:00,
2013-01-07 19:57:00,30.8,24.8,30.34,SSW,198,8.0,22.0,78,0.00,,,0.04,WUHU216DAVISVP2,2013-01-08 00:57:00,
2013-01-07 20:02:00,30.8,24.8,30.33,SSW,193,10.0,26.0,78,0.00,,,0.04,WUHU216DAVISVP2,2013-01-08 01:02:00,
2013-01-07 20:07:00,30.8,24.8,30.33,SSW,213,6.0,26.0,78,0.00,,,0.04,WUHU216DAVISVP2,2013-01-08 01:07:00,
2013-01-07 20:12:00,30.8,24.8,30.33,SW,221,8.0,26.0,78,0.00,,,0.04,WUHU216DAVISVP2,2013-01-08 01:12:00,
2013-01-07 20:17:00,30.7,24.7,30.33,South,180,12.0,26.0,78,0.00,,,0.04,WUHU216DAVISVP2,2013-01-08 01:17:00,
2013-01-07 20:22:00,30.6,24.6,30.33,SW,232,8.0,22.0,78,0.00,,,0.04,WUHU216DAVISVP2,2013-01-08 01:22:00,
2013-01-07 20:27:00,30.6,24.6,30.33,SW,227,16.0,22.0,78,0.00,,,0.04,WUHU216DAVISVP2,2013-01-08 01:27:00,
2013-01-07 20:32:00,30.5,24.5,30.32,WNW,296,10.0,24.0,78,0.00,,,0.04,WUHU216DAVISVP2,2013-01-08 01:32:00,
2013-01-07 20:37:00,30.4,24.7,30.32,SSW,203,14.0,24.0,79,0.00,,,0.04,WUHU216DAVISVP2,2013-01-08 01:37:00,
2013-01-07 20:42:00,30.4,24.7,30.32,ESE,118,8.0,28.0,79,0.00,,,0.04,WUHU216DAVISVP2,2013-01-08 01:42:00,
2013-01-07 20:47:00,30.4,24.7,30.31,SSW,213,6.0,36.0,79,0.00,,,0.04,WUHU216DAVISVP2,2013-01-08 01:47:00,
2013-01-07 20:52:00,30.3,24.6,30.31,SW,225,20.0,40.0,79,0.00,,,0.04,WUHU216DAVISVP2,2013-01-08 01:52:00,
2013-01-07 20:57:00,30.2,24.5,30.31,SSW,208,24.0,40.0,79,0.00,,,0.04,WUHU216DAVISVP2,2013-01-08 01:57:00,
2013-01-07 21:02:00,30.2,24.5,30.31,SSW,199,16.0,38.0,79,0.00,,,0.04,WUHU216DAVISVP2,2013-01-08 02:02:00,
2013-01-07 21:07:00,30.1,24.4,30.30,South,171,12.0,32.0,79,0.00,,,0.04,WUHU216DAVISVP2,2013-01-08 02:07:00,
2013-01-07 21:12:00,30.1,24.4,30.30,SSW,205,10.0,32.0,79,0.00,,,0.04,WUHU216DAVISVP2,2013-01-08 02:12:00,
2013-01-07 21:17:00,30.0,24.3,30.30,SSW,208,8.0,30.0,79,0.00,,,0.04,WUHU216DAVISVP2,2013-01-08 02:17:00,
2013-01-07 21:22:00,29.9,24.5,30.30,South,184,22.0,28.0,80,0.00,,,0.04,WUHU216DAVISVP2,2013-01-08 02:22:00,
2013-01-07 21:27:00,30.0,24.6,30.30,WSW,237,6.0,32.0,80,0.00,,,0.04,WUHU216DAVISVP2,2013-01-08 02:27:00,
2013-01-07 21:32:00,30.0,24.6,30.30,SSW,208,14.0,32.0,80,0.00,,,0.04,WUHU216DAVISVP2,2013-01-08 02:32:00,
2013-01-07 21:37:00,30.0,24.6,30.30,South,180,16.0,32.0,80,0.00,,,0.04,WUHU216DAVISVP2,2013-01-08 02:37:00,
2013-01-07 21:42:00,29.9,24.5,30.29,South,175,14.0,34.0,80,0.00,,,0.04,WUHU216DAVISVP2,2013-01-08 02:42:00,
2013-01-07 21:48:00,29.9,24.5,30.29,SSW,209,14.0,40.0,80,0.00,,,0.04,WUHU216DAVISVP2,2013-01-08 02:48:00,
2013-01-07 21:53:00,29.9,24.5,30.29,WSW,240,4.0,40.0,80,0.00,,,0.04,WUHU216DAVISVP2,2013-01-08 02:53:00,
2013-01-07 21:58:00,29.9,24.5,30.29,SE,130,20.0,32.0,80,0.00,,,0.04,WUHU216DAVISVP2,2013-01-08 02:58:00,
2013-01-07 22:03:00,29.9,24.5,30.29,SW,234,14.0,36.0,80,0.00,,,0.04,WUHU216DAVISVP2,2013-01-08 03:03:00,
2013-01-07 22:08:00,29.8,24.7,30.29,West,277,20.0,36.0,81,0.00,,,0.04,WUHU216DAVISVP2,2013-01-08 03:08:00,
2013-01-07 22:13:00,29.8,24.7,30.29,SSW,213,10.0,28.0,81,0.00,,,0.04,WUHU216DAVISVP2,2013-01-08 03:13:00,
2013-01-07 22:18:00,29.7,24.6,30.29,SW,219,20.0,32.0,81,0.00,,,0.04,WUHU216DAVISVP2,2013-01-08 03:18:00,
2013-01-07 22:23:00,29.8,24.7,30.29,SW,232,6.0,38.0,81,0.00,,,0.04,WUHU216DAVISVP2,2013-01-08 03:23:00,
2013-01-07 22:28:00,29.7,24.6,30.29,SSW,207,20.0,38.0,81,0.00,,,0.04,WUHU216DAVISVP2,2013-01-08 03:28:00,
2013-01-07 22:33:00,29.6,24.5,30.29,SE,138,8.0,26.0,81,0.00,,,0.04,WUHU216DAVISVP2,2013-01-08 03:33:00,
2013-01-07 22:38:00,29.5,24.4,30.29,North,355,8.0,26.0,81,0.00,,,0.04,WUHU216DAVISVP2,2013-01-08 03:38:00,
2013-01-07 22:43:00,29.5,24.4,30.29,SW,233,22.0,26.0,81,0.00,,,0.04,WUHU216DAVISVP2,2013-01-08 03:43:00,
2013-01-07 22:48:00,29.6,24.5,30.29,SW,219,6.0,30.0,81,0.00,,,0.04,WUHU216DAVISVP2,2013-01-08 03:48:00,
2013-01-07 22:53:00,29.6,24.5,30.29,SSW,200,4.0,30.0,81,0.00,,,0.04,WUHU216DAVISVP2,2013-01-08 03:53:00,
2013-01-07 22:58:00,29.5,24.4,30.29,SW,231,6.0,28.0,81,0.00,,,0.04,WUHU216DAVISVP2,2013-01-08 03:58:00,
2013-01-07 23:03:00,29.4,24.6,30.29,WSW,238,4.0,26.0,82,0.00,,,0.04,WUHU216DAVISVP2,2013-01-08 04:03:00,
2013-01-07 23:08:00,29.4,24.6,30.29,SSW,194,18.0,20.0,82,0.00,,,0.04,WUHU216DAVISVP2,2013-01-08 04:08:00,
2013-01-07 23:13:00,29.3,24.5,30.29,SSW,198,14.0,20.0,82,0.00,,,0.04,WUHU216DAVISVP2,2013-01-08 04:13:00,
2013-01-07 23:18:00,29.3,24.5,30.29,SE,137,4.0,30.0,82,0.00,,,0.04,WUHU216DAVISVP2,2013-01-08 04:18:00,
2013-01-07 23:23:00,29.3,24.5,30.29,SSW,194,12.0,30.0,82,0.00,,,0.04,WUHU216DAVISVP2,2013-01-08 04:23:00,
2013-01-07 23:28:00,29.3,24.5,30.29,SSW,199,24.0,28.0,82,0.00,,,0.04,WUHU216DAVISVP2,2013-01-08 04:28:00,
2013-01-07 23:33:00,29.4,24.6,30.28,South,169,6.0,34.0,82,0.00,,,0.04,WUHU216DAVISVP2,2013-01-08 04:33:00,
2013-01-07 23:38:00,29.3,24.5,30.28,SW,216,10.0,34.0,82,0.00,,,0.04,WUHU216DAVISVP2,2013-01-08 04:38:00,
2013-01-07 23:43:00,29.3,24.5,30.28,SSE,160,16.0,30.0,82,0.00,,,0.04,WUHU216DAVISVP2,2013-01-08 04:43:00,
2013-01-07 23:48:00,29.3,24.5,30.28,SW,216,8.0,28.0,82,0.00,,,0.04,WUHU216DAVISVP2,2013-01-08 04:48:00,
2013-01-07 23:53:00,29.2,24.4,30.28,SSE,152,8.0,24.0,82,0.00,,,0.04,WUHU216DAVISVP2,2013-01-08 04:53:00,
2013-01-07 23:58:00,29.1,24.3,30.28,SW,224,18.0,24.0,82,0.00,,,0.04,WUHU216DAVISVP2,2013-01-08 04:58:00,